Time,TemperatureF,DewpointF,PressureIn,WindDirection,WindDirectionDegrees,WindSpeedMPH,WindSpeedGustMPH,Humidity,HourlyPrecipIn,Conditions,Clouds,dailyrainin,SolarRadiationWatts/m^2,SoftwareType,DateUTC
2013-10-16 00:02:00,34.0,18.0,-100.00,West,280,4.0,8.0,52,0.00,,,0.00,0.000000,,2013-10-16 06:02:00,
2013-10-16 00:43:00,34.0,20.0,-100.00,SW,220,1.0,9.0,55,0.00,,,-99.99,0.000000,,2013-10-16 06:43:00,
2013-10-16 00:52:00,34.0,20.0,-100.00,SW,220,1.0,9.0,55,0.00,,,-99.99,0.000000,,2013-10-16 06:52:00,
2013-10-16 01:02:00,34.0,20.0,-100.00,SW,220,1.0,9.0,55,0.00,,,-99.99,0.000000,,2013-10-16 07:02:00,
2013-10-16 01:42:00,33.0,19.0,-100.00,SW,235,6.0,7.0,56,0.00,,,0.00,0.000000,,2013-10-16 07:42:00,
2013-10-16 01:53:00,33.0,19.0,-100.00,SW,235,6.0,7.0,56,0.00,,,0.00,0.000000,,2013-10-16 07:53:00,
2013-10-16 02:02:00,33.0,19.0,-100.00,SW,235,6.0,7.0,56,0.00,,,0.00,0.000000,,2013-10-16 08:02:00,
2013-10-16 02:22:00,33.0,19.0,-100.00,WSW,238,1.0,9.0,56,0.00,,,-99.99,0.000000,,2013-10-16 08:22:00,
2013-10-16 02:32:00,33.0,19.0,-100.00,WSW,238,1.0,9.0,56,0.00,,,-99.99,0.000000,,2013-10-16 08:32:00,
2013-10-16 02:42:00,33.0,19.0,-100.00,WSW,238,1.0,9.0,56,0.00,,,-99.99,0.000000,,2013-10-16 08:42:00,
2013-10-16 02:52:00,33.0,19.0,-100.00,WSW,238,1.0,9.0,56,0.00,,,-99.99,0.000000,,2013-10-16 08:52:00,
2013-10-16 03:02:00,33.0,19.0,-100.00,WSW,238,1.0,9.0,56,0.00,,,-99.99,0.000000,,2013-10-16 09:02:00,
2013-10-16 03:43:00,31.0,19.0,-100.00,SW,234,0.0,6.0,61,0.00,,,0.00,0.000000,,2013-10-16 09:43:00,
2013-10-16 03:53:00,31.0,19.0,-100.00,SW,234,0.0,6.0,61,0.00,,,0.00,0.000000,,2013-10-16 09:53:00,
2013-10-16 04:02:00,31.0,19.0,-100.00,SW,234,0.0,6.0,61,0.00,,,0.00,0.000000,,2013-10-16 10:02:00,
2013-10-16 04:03:00,31.0,19.0,-100.00,WNW,291,2.0,5.0,61,0.00,,,0.00,0.000000,,2013-10-16 10:03:00,
2013-10-16 04:42:00,31.0,19.0,-100.00,WNW,291,2.0,5.0,61,0.00,,,0.00,0.000000,,2013-10-16 10:42:00,
2013-10-16 04:53:00,31.0,19.0,-100.00,WNW,291,2.0,5.0,61,0.00,,,0.00,0.000000,,2013-10-16 10:53:00,
2013-10-16 05:42:00,29.0,19.0,-100.00,West,271,3.0,8.0,65,0.00,,,0.00,0.000000,,2013-10-16 11:42:00,
2013-10-16 05:52:00,29.0,19.0,-100.00,West,271,3.0,8.0,65,0.00,,,0.00,0.000000,,2013-10-16 11:52:00,
2013-10-16 06:01:00,29.0,19.0,-100.00,West,271,3.0,8.0,65,0.00,,,0.00,0.000000,,2013-10-16 12:01:00,
2013-10-16 06:42:00,30.0,19.0,-100.00,WSW,246,0.0,7.0,64,0.00,,,-99.99,0.000000,,2013-10-16 12:42:00,
2013-10-16 06:52:00,30.0,19.0,-100.00,WSW,246,0.0,7.0,64,0.00,,,-99.99,0.000000,,2013-10-16 12:52:00,
2013-10-16 07:01:00,30.0,19.0,-100.00,WSW,246,0.0,7.0,64,0.00,,,-99.99,0.000000,,2013-10-16 13:01:00,
2013-10-16 07:42:00,29.0,19.0,-100.00,WSW,251,1.0,6.0,65,0.00,,,0.00,0.000000,,2013-10-16 13:42:00,
2013-10-16 07:52:00,29.0,19.0,-100.00,WSW,251,1.0,6.0,65,0.00,,,0.00,0.000000,,2013-10-16 13:52:00,
2013-10-16 08:01:00,29.0,19.0,-100.00,WSW,251,1.0,6.0,65,0.00,,,0.00,0.000000,,2013-10-16 14:01:00,
2013-10-16 08:42:00,30.0,20.0,-100.00,West,267,0.0,7.0,65,0.00,,,0.00,2.000000,,2013-10-16 14:42:00,
2013-10-16 08:52:00,30.0,20.0,-100.00,West,267,0.0,7.0,65,0.00,,,0.00,2.000000,,2013-10-16 14:52:00,
2013-10-16 09:02:00,30.0,20.0,-100.00,West,267,0.0,7.0,65,0.00,,,0.00,2.000000,,2013-10-16 15:02:00,
2013-10-16 09:03:00,31.0,21.0,-100.00,SW,225,4.0,7.0,67,0.00,,,-99.99,51.000000,,2013-10-16 15:03:00,
2013-10-16 09:43:00,31.0,21.0,-100.00,SW,225,4.0,7.0,67,0.00,,,-99.99,51.000000,,2013-10-16 15:43:00,
2013-10-16 09:53:00,31.0,21.0,-100.00,SW,225,4.0,7.0,67,0.00,,,-99.99,51.000000,,2013-10-16 15:53:00,
2013-10-16 10:53:00,40.0,25.0,-100.00,ENE,72,2.0,7.0,55,0.00,,,0.00,329.000000,,2013-10-16 16:53:00,
2013-10-16 11:02:00,40.0,25.0,-100.00,ENE,72,2.0,7.0,55,0.00,,,0.00,329.000000,,2013-10-16 17:02:00,
2013-10-16 11:22:00,40.0,25.0,-100.00,ENE,62,2.0,7.0,54,0.00,,,0.00,228.000000,,2013-10-16 17:22:00,
2013-10-16 11:33:00,40.0,25.0,-100.00,ENE,62,2.0,7.0,54,0.00,,,0.00,228.000000,,2013-10-16 17:33:00,
2013-10-16 11:43:00,40.0,25.0,-100.00,ENE,62,2.0,7.0,54,0.00,,,0.00,228.000000,,2013-10-16 17:43:00,
2013-10-16 11:52:00,40.0,25.0,-100.00,ENE,62,2.0,7.0,54,0.00,,,0.00,228.000000,,2013-10-16 17:52:00,
2013-10-16 12:02:00,40.0,25.0,-100.00,ENE,62,2.0,7.0,54,0.00,,,0.00,228.000000,,2013-10-16 18:02:00,
2013-10-16 12:42:00,42.0,26.0,-100.00,NE,52,1.0,5.0,52,0.00,,,0.00,288.000000,,2013-10-16 18:42:00,
2013-10-16 12:52:00,42.0,26.0,-100.00,NE,52,1.0,5.0,52,0.00,,,0.00,288.000000,,2013-10-16 18:52:00,
2013-10-16 13:02:00,42.0,26.0,-100.00,NE,52,1.0,5.0,52,0.00,,,0.00,288.000000,,2013-10-16 19:02:00,
2013-10-16 13:22:00,41.0,23.0,-100.00,North,2,8.0,8.0,48,0.00,,,0.00,298.000000,,2013-10-16 19:22:00,
2013-10-16 13:32:00,41.0,23.0,-100.00,North,2,8.0,8.0,48,0.00,,,0.00,298.000000,,2013-10-16 19:32:00,
2013-10-16 13:42:00,41.0,23.0,-100.00,North,2,8.0,8.0,48,0.00,,,0.00,298.000000,,2013-10-16 19:42:00,
2013-10-16 13:52:00,41.0,23.0,-100.00,North,2,8.0,8.0,48,0.00,,,0.00,298.000000,,2013-10-16 19:52:00,
2013-10-16 14:02:00,41.0,23.0,-100.00,North,2,8.0,8.0,48,0.00,,,0.00,298.000000,,2013-10-16 20:02:00,
2013-10-16 14:22:00,44.0,23.0,-100.00,NNE,21,5.0,12.0,43,0.00,,,0.00,339.000000,,2013-10-16 20:22:00,
2013-10-16 14:32:00,44.0,23.0,-100.00,NNE,21,5.0,12.0,43,0.00,,,0.00,339.000000,,2013-10-16 20:32:00,
2013-10-16 14:43:00,44.0,23.0,-100.00,NNE,21,5.0,12.0,43,0.00,,,0.00,339.000000,,2013-10-16 20:43:00,
2013-10-16 14:52:00,44.0,23.0,-100.00,NNE,21,5.0,12.0,43,0.00,,,0.00,339.000000,,2013-10-16 20:52:00,
2013-10-16 15:02:00,44.0,23.0,-100.00,NNE,21,5.0,12.0,43,0.00,,,0.00,339.000000,,2013-10-16 21:02:00,
2013-10-16 15:03:00,44.0,25.0,-100.00,North,2,12.0,13.0,46,0.00,,,-99.99,298.000000,,2013-10-16 21:03:00,
2013-10-16 15:23:00,44.0,25.0,-100.00,North,2,12.0,13.0,46,0.00,,,-99.99,298.000000,,2013-10-16 21:23:00,
2013-10-16 15:34:00,44.0,25.0,-100.00,North,2,12.0,13.0,46,0.00,,,-99.99,298.000000,,2013-10-16 21:34:00,
2013-10-16 15:44:00,44.0,25.0,-100.00,North,2,12.0,13.0,46,0.00,,,-99.99,298.000000,,2013-10-16 21:44:00,
2013-10-16 15:54:00,44.0,25.0,-100.00,North,2,12.0,13.0,46,0.00,,,-99.99,298.000000,,2013-10-16 21:54:00,
2013-10-16 16:42:00,41.0,31.0,-100.00,NNW,343,9.0,30.0,67,0.00,,,0.00,209.000000,,2013-10-16 22:42:00,
2013-10-16 16:54:00,41.0,31.0,-100.00,NNW,343,9.0,30.0,67,0.00,,,0.00,209.000000,,2013-10-16 22:54:00,
2013-10-16 17:02:00,41.0,31.0,-100.00,NNW,343,9.0,30.0,67,0.00,,,0.00,209.000000,,2013-10-16 23:02:00,
2013-10-16 17:42:00,39.0,29.0,-100.00,NNW,329,4.0,29.0,68,0.00,,,0.00,78.000000,,2013-10-16 23:42:00,
2013-10-16 17:53:00,39.0,29.0,-100.00,NNW,329,4.0,29.0,68,0.00,,,0.00,78.000000,,2013-10-16 23:53:00,
2013-10-16 18:02:00,39.0,29.0,-100.00,NNW,329,4.0,29.0,68,0.00,,,0.00,78.000000,,2013-10-17 00:02:00,
2013-10-16 18:42:00,39.0,29.0,-100.00,North,354,15.0,15.0,68,0.00,,,0.00,51.000000,,2013-10-17 00:42:00,
2013-10-16 18:52:00,39.0,29.0,-100.00,North,354,15.0,15.0,68,0.00,,,0.00,51.000000,,2013-10-17 00:52:00,
2013-10-16 19:02:00,39.0,29.0,-100.00,North,354,15.0,15.0,68,0.00,,,0.00,51.000000,,2013-10-17 01:02:00,
2013-10-16 19:03:00,39.0,27.0,-100.00,NNW,328,9.0,25.0,61,0.00,,,0.00,10.000000,,2013-10-17 01:03:00,
2013-10-16 19:42:00,39.0,27.0,-100.00,NNW,328,9.0,25.0,61,0.00,,,0.00,10.000000,,2013-10-17 01:42:00,
2013-10-16 19:52:00,39.0,27.0,-100.00,NNW,328,9.0,25.0,61,0.00,,,0.00,10.000000,,2013-10-17 01:52:00,
2013-10-16 20:53:00,38.0,26.0,-100.00,NE,39,9.0,21.0,62,0.00,,,0.00,0.000000,,2013-10-17 02:53:00,
2013-10-16 21:02:00,38.0,26.0,-100.00,NE,39,9.0,21.0,62,0.00,,,0.00,0.000000,,2013-10-17 03:02:00,
2013-10-16 21:03:00,38.0,28.0,-100.00,North,3,9.0,19.0,68,0.00,,,0.00,0.000000,,2013-10-17 03:03:00,
2013-10-16 21:22:00,38.0,28.0,-100.00,North,3,9.0,19.0,68,0.00,,,0.00,0.000000,,2013-10-17 03:22:00,
2013-10-16 21:34:00,38.0,28.0,-100.00,North,3,9.0,19.0,68,0.00,,,0.00,0.000000,,2013-10-17 03:34:00,
2013-10-16 21:44:00,38.0,28.0,-100.00,North,3,9.0,19.0,68,0.00,,,0.00,0.000000,,2013-10-17 03:44:00,
2013-10-16 21:54:00,38.0,28.0,-100.00,North,3,9.0,19.0,68,0.00,,,0.00,0.000000,,2013-10-17 03:54:00,
2013-10-16 22:03:00,38.0,28.0,-100.00,North,0,14.0,17.0,66,0.00,,,0.00,0.000000,,2013-10-17 04:03:00,
2013-10-16 22:43:00,38.0,28.0,-100.00,North,0,14.0,17.0,66,0.00,,,0.00,0.000000,,2013-10-17 04:43:00,
2013-10-16 22:54:00,38.0,28.0,-100.00,North,0,14.0,17.0,66,0.00,,,0.00,0.000000,,2013-10-17 04:54:00,
2013-10-16 23:42:00,38.0,27.0,-100.00,WNW,287,0.0,22.0,65,0.00,,,0.00,0.000000,,2013-10-17 05:42:00,
2013-10-16 23:52:00,38.0,27.0,-100.00,WNW,287,0.0,22.0,65,0.00,,,0.00,0.000000,,2013-10-17 05:52:00,